TimeCDT,TemperatureF,Dew PointF,Humidity,Sea Level PressureIn,VisibilityMPH,Wind Direction,Wind SpeedMPH,Gust SpeedMPH,PrecipitationIn,Events,Conditions,WindDirDegrees,DateUTC
12:54 AM,60.1,57.0,90,30.18,10.0,Calm,Calm,-,N/A,,Partly Cloudy,0,2013-07-30 05:54:00
1:54 AM,60.1,55.9,86,30.19,10.0,Calm,Calm,-,N/A,,Partly Cloudy,0,2013-07-30 06:54:00
2:54 AM,59.0,55.9,90,30.17,8.0,ESE,4.6,-,N/A,,Partly Cloudy,110,2013-07-30 07:54:00
3:54 AM,57.9,55.9,93,30.17,7.0,SE,6.9,-,N/A,,Partly Cloudy,130,2013-07-30 08:54:00
4:54 AM,57.0,55.0,93,30.19,6.0,Calm,Calm,-,N/A,,Partly Cloudy,0,2013-07-30 09:54:00
5:54 AM,57.9,55.9,93,30.19,7.0,SE,3.5,-,N/A,,Mostly Cloudy,130,2013-07-30 10:54:00
6:54 AM,60.1,55.9,86,30.18,8.0,SSE,5.8,-,N/A,,Mostly Cloudy,150,2013-07-30 11:54:00
7:54 AM,62.1,55.9,80,30.18,10.0,SE,5.8,-,0.00,Rain,Light Rain,140,2013-07-30 12:54:00
8:54 AM,64.9,57.9,78,30.18,10.0,SSE,5.8,-,0.00,,Overcast,150,2013-07-30 13:54:00
9:54 AM,68.0,59.0,73,30.18,10.0,SSE,6.9,-,0.00,Rain,Light Rain,160,2013-07-30 14:54:00
10:54 AM,68.0,60.1,76,30.18,10.0,South,6.9,-,0.00,,Light Drizzle,170,2013-07-30 15:54:00
11:54 AM,68.0,60.1,76,30.17,10.0,SE,6.9,-,0.00,,Overcast,130,2013-07-30 16:54:00
12:15 PM,69.8,60.8,73,30.17,10.0,SE,8.1,-,N/A,,Overcast,140,2013-07-30 17:15:00
12:54 PM,69.1,62.1,78,30.15,10.0,SE,9.2,-,N/A,,Overcast,140,2013-07-30 17:54:00
1:20 PM,66.2,62.6,88,30.15,6.0,SE,8.1,-,0.01,Rain,Light Rain,140,2013-07-30 18:20:00
1:30 PM,66.2,64.4,94,30.15,7.0,SE,8.1,-,0.01,Rain,Light Rain,140,2013-07-30 18:30:00
1:54 PM,68.0,64.9,90,30.14,7.0,SE,8.1,-,0.01,Rain,Light Rain,140,2013-07-30 18:54:00
2:04 PM,66.2,64.4,94,30.14,4.0,SSE,8.1,-,0.01,Rain,Light Rain,150,2013-07-30 19:04:00
2:35 PM,66.2,64.4,94,30.13,6.0,SSE,10.4,-,0.02,Rain,Light Rain,150,2013-07-30 19:35:00
2:54 PM,66.0,63.0,90,30.14,6.0,SSE,9.2,-,0.02,,Light Drizzle,150,2013-07-30 19:54:00
3:46 PM,66.2,64.4,94,30.12,5.0,ESE,8.1,-,0.01,Rain,Light Rain,120,2013-07-30 20:46:00
3:54 PM,66.9,64.0,90,30.12,7.0,ESE,8.1,-,0.01,Rain,Light Rain,110,2013-07-30 20:54:00
4:35 PM,66.2,64.4,94,30.12,10.0,East,8.1,-,0.00,,Overcast,100,2013-07-30 21:35:00
4:54 PM,66.9,64.0,90,30.11,10.0,East,6.9,-,0.00,,Light Drizzle,90,2013-07-30 21:54:00
5:03 PM,66.2,64.4,94,30.12,10.0,ESE,5.8,-,0.00,,Light Drizzle,110,2013-07-30 22:03:00
5:32 PM,68.0,64.4,88,30.11,10.0,East,6.9,-,0.00,,Overcast,100,2013-07-30 22:32:00
5:54 PM,66.9,64.0,90,30.10,10.0,East,6.9,-,0.00,,Overcast,100,2013-07-30 22:54:00
6:54 PM,66.9,64.0,90,30.10,3.0,SSE,6.9,-,0.00,,Light Drizzle,150,2013-07-30 23:54:00
7:01 PM,66.2,64.4,94,30.11,3.0,SE,6.9,-,0.00,,Light Drizzle,130,2013-07-31 00:01:00
7:22 PM,64.4,62.6,94,30.10,2.5,SE,3.5,-,0.01,,Light Drizzle,130,2013-07-31 00:22:00
7:32 PM,64.4,62.6,94,30.10,5.0,ESE,3.5,-,0.01,,Light Drizzle,110,2013-07-31 00:32:00
7:54 PM,64.9,63.0,93,30.10,6.0,SE,9.2,-,0.01,,Light Drizzle,130,2013-07-31 00:54:00
8:45 PM,64.4,62.6,94,30.11,5.0,East,5.8,-,0.00,,Light Drizzle,100,2013-07-31 01:45:00
8:54 PM,64.0,63.0,96,30.10,5.0,East,4.6,-,0.00,,Light Drizzle,100,2013-07-31 01:54:00
9:24 PM,64.4,62.6,94,30.10,6.0,ESE,10.4,-,0.00,,Light Drizzle,120,2013-07-31 02:24:00
9:54 PM,64.0,63.0,96,30.10,6.0,SE,4.6,-,0.00,,Light Drizzle,130,2013-07-31 02:54:00
10:12 PM,64.4,62.6,94,30.11,3.0,ESE,4.6,-,0.00,,Light Drizzle,110,2013-07-31 03:12:00
10:54 PM,64.9,63.0,93,30.09,2.0,ESE,5.8,-,0.00,,Light Drizzle,120,2013-07-31 03:54:00
11:09 PM,64.4,62.6,94,30.11,3.0,ESE,4.6,-,0.01,,Light Drizzle,120,2013-07-31 04:09:00
11:24 PM,64.4,62.6,94,30.10,2.0,ESE,6.9,-,0.01,,Light Drizzle,110,2013-07-31 04:24:00
11:54 PM,64.0,63.0,96,30.09,2.0,ESE,3.5,-,0.01,,Light Drizzle,120,2013-07-31 04:54:00